Regional Weather Roundup
Issued by NWS

Home | Current Version | Previous Version | Text Only | Print | Product List | Glossary On
Versions: 1 2 3 4 5 6 7 8 9 10 11 12 13 14 15 16 17 18 19 20 21 22 23 24 25 26 27 28 29 30 31 32 33 34 35 36 37 38 39 40 41 42 43 44 45 46 47 48 49 50
033
ASUS43 KMPX 120101
RWRMN
WEATHER ROUNDUP FOR MINNESOTA
NATIONAL WEATHER SERVICE TWIN CITIES/CHANHASSEN MN
700 PM CST MON DEC 11 2017


NOTE: "FAIR" INDICATES FEW OR NO CLOUDS BELOW 12,000 FEET WITH NO
SIGNIFICANT WEATHER AND/OR OBSTRUCTIONS TO VISIBILITY. N/A MEANS
CURRENT SKY AND/OR WEATHER CONDITIONS ARE NOT AVAILABLE.

MNZ060>063-068>070-120200-
   Twin Cities Metro

CITY           SKY/WX    TMP DP  RH WIND       PRES   REMARKS
TWIN CITIES    MOCLDY    25  17  72 NW17      30.13R WCI  12
ST PAUL        CLEAR     23  14  68 N15G23    30.14R WCI  10
CRYSTAL        PTCLDY    23  11  60 NW15G24   30.13R WCI  10
BLAINE         PTCLDY    25  16  68 N18G24    30.12R WCI  11
LAKEVILLE      CLOUDY    25  18  74 NW17G24   30.09R WCI  11
EDEN PRAIRIE   CLEAR     25  14  63 N15G23    30.13R WCI  13
SOUTH ST PAUL  CLEAR     25  14  63 N14G24    30.12R WCI  13
LAKE ELMO      CLOUDY    27  16  63 NW8G20    30.12R WCI  18
$$
MNZ001>005-007-008-013>017-022>024-027-028-120200-
   Northwest Minnesota

CITY           SKY/WX    TMP DP  RH WIND       PRES   REMARKS
BEMIDJI        FLURRIES   6   2  83 NW14      30.22R WCI -10
HALLOCK        CLOUDY     9   3  78 NW6       30.33S WCI  -1
ROSEAU         CLOUDY     7   1  78 NW7       30.29R WCI  -5
WARROAD        CLEAR      5   1  85 NW9       30.27R WCI  -9
CROOKSTON      CLOUDY     7   3  85 N9        30.35S WCI  -7
FOSSTON        CLOUDY     3   1  92 NW12      30.28R WCI -13
DETROIT LAKES  LGT SNOW  10   7  85 NW15      30.28R WCI  -6
MOORHEAD       CLEAR     10   5  79 N14       30.34R WCI  -5
PARK RAPIDS    CLOUDY     9   4  80 NW10      30.21R WCI  -5
MAHNOMEN       FAIR       7   3  85 NW15      30.28R WCI -11
$$
MNZ006-009>011-018-025>026-120200-
   North Central Minnesota

CITY           SKY/WX    TMP DP  RH WIND       PRES   REMARKS
BAUDETTE       CLEAR      7   1  76 NW17      30.22R WCI -12
FLAG ISLAND    CLEAR      5   1  85 NW17      30.23S WCI -14
INTL FALLS     CLEAR      9   1  70 NW8       30.17R WCI  -3
WASKISH        CLEAR      9   5  85 NW9       30.23R WCI  -5
LONGVILLE      FLURRIES  14   9  79 NW12G22   30.17R WCI   0
GRAND RAPIDS   FLURRIES  13   7  77 NW18G26   30.15R WCI  -4
CRANE LAKE     CLOUDY    10   3  72 NW10G21   30.14R WCI  -3
ORR            CLOUDY    10   3  72 NW14G24   30.10R WCI  -5
COOK           CLOUDY    12   5  73 NW8G20    30.11R WCI   1
WALKER         FLURRIES  10   5  80 NW14G20   30.20R WCI  -7
$$
MNZ012-019>021-037-120200-
   Northeast Minnesota

CITY           SKY/WX    TMP DP  RH WIND       PRES   REMARKS
DULUTH         MOCLDY    14   7  73 N18G29    30.05R WCI  -3
ELY            MOCLDY    10   1  67 N10G20    30.06R WCI  -3
HIBBING        PTCLDY    12   5  73 NW18      30.09R WCI  -6
EVELETH        PTCLDY    13   2  63 NW15G26   30.09R WCI  -3
DULUTH HARBOR  MOCLDY    19  12  73 N12       30.13R WCI   7
TWO HARBORS    CLEAR     18   7  62 NW8G17    30.03R WCI   7
SILVER BAY     CLEAR     12   7  79 NW12G23   30.02R WCI  -2
GRAND MARAIS     N/A     13   2  61 MISG      30.04R
G MARAIS ARPRT CLEAR      5  -4  66 NW13G24   29.93R WCI -12
$$
MNZ029>031-032-039>041-046>048-054>057-064-120200-
   West Central Minnesota

CITY           SKY/WX    TMP DP  RH WIND       PRES   REMARKS
FERGUS FALLS   PTCLDY    10   7  85 N15G22    30.34R WCI  -6
WHEATON        CLEAR     14   9  79 NW13      30.35R WCI   0
MORRIS         CLEAR     14   9  79 NW21G26   30.28R WCI  -4
ALEXANDRIA     CLEAR     12   7  80 NW15      30.23R WCI  -4
ELBOW LAKE     FAIR      11   8  86 NW18G25   30.29R WCI  -7
WADENA         FLURRIES   9   5  85 NW10      30.23R WCI  -6
GLENWOOD       CLEAR     12   9  85 NW16      30.23R WCI  -4
APPLETON       PTCLDY    18  10  73 N15G23    30.29R WCI   3
BENSON         CLEAR     14   9  79 N20G25    30.28R WCI  -3
ORTONVILLE     PTCLDY    18  10  73 N18       30.31R WCI   2
MADISON        PTCLDY    21  14  73 N18G30    30.30R WCI   6
WILLMAR        FAIR      18  12  79 NW18G25   30.23R WCI   2
$$
MNZ033>034-036-042>043-049>051-058-059-120200-
   Central Minnesota

CITY           SKY/WX    TMP DP  RH WIND       PRES   REMARKS
ST CLOUD       CLEAR     20  13  74 NW10      30.16R WCI   9
SAUK CENTRE    FAIR      14   9  81 NW18G25   30.21R WCI  -3
PAYNESVILLE    CLEAR     17  13  84 NW14G21   30.20R WCI   3
AITKIN         CLEAR     14   7  73 NW6       30.14R WCI   5
PINE RIVER     FLURRIES  12   7  79 NW10G17   30.21R WCI  -1
BRAINERD       CLEAR     17   7  64 NW8       30.17R WCI   7
STAPLES        MOCLDY    10   7  85 NW14      30.21R WCI  -5
LONG PRAIRIE   FAIR      14  10  85 W17G24    30.20R WCI  -3
LITTLE FALLS   CLEAR     19   9  63 NW13G22   30.19R WCI   7
LITCHFIELD     CLEAR     19  16  86 NW15G25   30.18R WCI   5
BUFFALO        CLEAR     23  12  63 NW10G20   30.17R WCI  12
MAPLE LAKE     CLEAR     23  16  74 NW9G17    30.17R WCI  13
HUTCHINSON     CLOUDY    22  16  76 NW20G29   30.18R WCI   7
$$
MNZ037-044-045-052-053-120200-
   East Central Minnesota

CITY           SKY/WX    TMP DP  RH WIND       PRES   REMARKS
PRINCETON      CLEAR     21  12  68 NW10      30.15R WCI  10
MORA           CLEAR     19  10  68 NW13G18   30.15R WCI   7
CAMBRIDGE      CLEAR     21  10  63 NW9       30.14R WCI  11
RUSH CITY      CLEAR     20  10  65 NW8G16    30.13R WCI  11
MOOSE LAKE     CLEAR     18   9  68 NW9       30.10R WCI   6
HINCKLEY       FAIR      19  12  73 NW14G21   30.12R WCI   6
CLOQUET        PTCLDY    16   7  67 NW12G18   30.08R WCI   3
MCGREGOR       CLEAR     18   9  68 NW10G17   30.14R WCI   6
$$
MNZ071>073-080-081-089-090-097-098-120200-
   Southwest Minnesota

CITY           SKY/WX    TMP DP  RH WIND       PRES   REMARKS
MONTEVIDEO     PTCLDY    16  10  79 N21G31    30.27R WCI  -2
GRANITE FALLS  PTCLDY    19  14  80 NW14      30.26R WCI   6
CANBY          CLEAR     22  16  76 NW15G25   30.29R WCI   9
MARSHALL       PTCLDY    19  14  81 N15       30.25R WCI   5
REDWOOD FALLS  CLOUDY    19  10  68 NW16G32   30.22R WCI   4
OLIVIA         PTCLDY    19  14  79 NW18G24   30.22R WCI   4
PIPESTONE      CLEAR     19  14  79 N16G25    30.23R WCI   5
WINDOM           N/A     19   7  58 NW30G40   30.19R WCI   0
WORTHINGTON    PTCLDY    20  15  81 NW24G35   30.21R WCI   3
JACKSON        MOCLDY    21  14  73 MISG      30.18R
TRACY          PTCLDY    20  16  83 N21G28    30.23R WCI   4
SLAYTON        CLEAR     20  15  79 NW20G29   30.21R WCI   5
$$
MNZ065>067-074>077-082>085-091>093-120200-
   South Central Minnesota

CITY           SKY/WX    TMP DP  RH WIND       PRES   REMARKS
MANKATO        CLOUDY    26  19  74 NW23G29   30.14R WCI  11
NEW ULM        PTCLDY    21  16  79 NW24G31   30.19R WCI   4
ST JAMES       CLOUDY    21  18  86 NW24G31   30.19R WCI   4
FAIRMONT       CLOUDY    23  17  78 NW25G40   30.16R WCI   7
GLENCOE        CLEAR     25  20  81 NW14G21   30.16R WCI  13
FARIBAULT      PTCLDY    25  18  74 NW15G23   30.11R WCI  12
OWATONNA       MOCLDY    27  19  74 NW23G29   30.08R WCI  12
WASECA         CLOUDY    28  21  74 NW24G30   30.12R WCI  14
$$
MNZ078>079-086>088-094>096-120200-
   Southeast Minnesota

CITY           SKY/WX    TMP DP  RH WIND       PRES   REMARKS
ROCHESTER      CLOUDY    26  18  71 N23G33    30.02R WCI  11
RED WING       CLOUDY    27  12  54 N10G21    30.08R WCI  17
STANTON        MOCLDY    28  18  68 N16       30.09R WCI  15
DODGE CENTER   CLOUDY    27  19  74 NW24G33   30.04R WCI  12
WINONA           N/A     30  19  64 N20G32    30.03R WCI  18
PRESTON        CLOUDY    29  22  74 N17G26    29.99R WCI  17
$$
ABBREVIATIONS USED IN REMARKS
   TC - TEMPERATURES IN CELSIUS
  WCI - WIND CHILL INDEX
   HX - HEAT INDEX
  VSB - VISIBILITY
$$




USA.gov is the U.S. government's official web portal to all federal, state and local government web resources and services.